World > North America > United States > Ohio

Peninsula, Ohio Regional Weather

Lat: 41.24N, Lon: 81.55W
Wx Zone: OHZ021Web Search

Pass this page to a friend. Tell them to point their camera at the QR Code near the bottom of this page.

Feedback


°F Click to change Peninsula hourly weather to Imperial units.Click to change Peninsula hourly weather to Metric units. °C
Peninsula Weather Map
UTC Time: 5/6/2021, 15:54
Your Time:

Peninsula, OH Regional Weather

Expires:202105061600;;687424
ASUS41 KCLE 061512
RWRCLE
OHIO REGIONAL WEATHER ROUNDUP
NATIONAL WEATHER SERVICE WILMINGTON, OH
1100 AM EDT THU MAY 06 2021

NOTE: "FAIR" INDICATES FEW OR NO CLOUDS BELOW 12,000 FEET WITH NO
SIGNIFICANT WEATHER AND/OR OBSTRUCTIONS TO VISIBILITY.


OHZ009>014-019>023-028>033-038-089-061600-
   NORTHEAST OHIO
  
CITY           SKY/WX    TMP DP  RH WIND       PRES   REMARKS
CLE-HOPKINS    FAIR      54  36  50 VRB3      30.11F                  
CLE-LAKEFRONT  FAIR      53  39  59 N7        30.12F                  
CUY CO. ARPT   PTSUNNY   52  36  54 CALM      30.13S                  
LORAIN-ELYRIA  FAIR      53  39  59 SW7       30.14S                  
ASHTABULA      FAIR      51  35  54 VRB5      30.13F                  
AKRON-CANTON   FAIR      52  35  52 CALM      30.13F                  
WOOSTER        PTSUNNY   51  41  68 MISG      30.14F                  
MANSFIELD      FAIR      55  36  48 VRB6      30.13S                  
YOUNGSTOWN     FAIR      50  35  56 CALM      30.12F                  
$$
 

SKY/WX - Weather  TMP - Temperature  DP - Dew Point  RH - Relative Humidity
WIND - Wind Direction/Speed PRES - Barometric Pressure VSB - Visibility
WCI - Wind Chill Index E13G22 Wind - East Wind 13 mph/Gusts of 22 mph